When you browse on this site, cookies collect data to enhance your experience and personalize the content and advertising you see.
Visit our Privacy Policy to learn more. By continuing to use the site, you agree to this use of cookies and data.
  • In Hungary
  • List of Countries
  • For 7 days
  • Water Temperature
  • Weather Map
  • News
  • Weather Widgets
  • user-avatar
    Login

    Hourly Weather Tabaky

    Today, 12 November, Tuesday

    Time Temperature Precipitation Wind Pressure Humidity
    00:00 +13°C° 0 mm 1 mps 758 mmHg 64%
    01:00 +13°C° 0 mm 1 mps 758 mmHg 65%
    02:00 +13°C° 0 mm 1 mps 758 mmHg 67%
    03:00 +12°C° 0 mm 2 mps 758 mmHg 67%
    04:00 +12°C° 0 mm 2 mps 758 mmHg 68%
    05:00 +12°C° 0 mm 2 mps 758 mmHg 68%
    06:00 +12°C° 0 mm 2 mps 758 mmHg 67%
    07:00 +13°C° 0 mm 2 mps 758 mmHg 66%
    08:00 +12°C° 0 mm 3 mps 759 mmHg 65%
    09:00 +14°C° 0 mm 3 mps 759 mmHg 58%
    10:00 +17°C° 0 mm 4 mps 759 mmHg 52%
    11:00 +19°C° 0 mm 5 mps 759 mmHg 45%
    12:00 +20°C° 0 mm 5 mps 758 mmHg 44%
    13:00 +21°C° 0 mm 5 mps 758 mmHg 43%
    14:00 +22°C° 0 mm 5 mps 758 mmHg 41%
    15:00 +20°C° 0 mm 5 mps 758 mmHg 49%
    16:00 +19°C° 0 mm 5 mps 757 mmHg 58%
    17:00 +16°C° 0 mm 5 mps 757 mmHg 66%
    18:00 +15°C° 0 mm 5 mps 757 mmHg 73%
    19:00 +15°C° 0 mm 5 mps 757 mmHg 79%
    20:00 +14°C° 0 mm 6 mps 757 mmHg 86%
    21:00 +14°C° 0 mm 6 mps 757 mmHg 87%
    22:00 +14°C° 0 mm 6 mps 757 mmHg 88%
    23:00 +14°C° 0 mm 6 mps 757 mmHg 88%

    Tomorrow, 13 November, Wednesday

    Time Temperature Precipitation Wind Pressure Humidity
    00:00 +14°C° 0 mm 5 mps 757 mmHg 89%
    01:00 +13°C° 0 mm 5 mps 757 mmHg 89%
    02:00 +13°C° 0 mm 5 mps 757 mmHg 90%
    03:00 +13°C° 0 mm 5 mps 757 mmHg 90%
    04:00 +13°C° 0 mm 5 mps 756 mmHg 90%
    05:00 +13°C° 0 mm 5 mps 756 mmHg 90%
    06:00 +13°C° 0 mm 5 mps 756 mmHg 89%
    07:00 +14°C° 0 mm 6 mps 756 mmHg 88%
    08:00 +14°C° 0 mm 6 mps 756 mmHg 87%
    09:00 +16°C° 0 mm 7 mps 756 mmHg 74%
    10:00 +18°C° 0 mm 8 mps 755 mmHg 62%
    11:00 +21°C° 0 mm 8 mps 755 mmHg 50%
    12:00 +21°C° 0 mm 8 mps 755 mmHg 47%
    13:00 +22°C° 0 mm 8 mps 755 mmHg 45%
    14:00 +22°C° 0 mm 8 mps 754 mmHg 43%
    15:00 +20°C° 0 mm 8 mps 754 mmHg 50%
    16:00 +18°C° 0 mm 7 mps 754 mmHg 57%
    17:00 +16°C° 0 mm 6 mps 754 mmHg 65%
    18:00 +16°C° 0 mm 6 mps 754 mmHg 70%
    19:00 +15°C° 0 mm 5 mps 754 mmHg 76%
    20:00 +14°C° 0 mm 5 mps 754 mmHg 81%
    21:00 +14°C° 0 mm 5 mps 754 mmHg 82%
    22:00 +13°C° 0 mm 5 mps 754 mmHg 82%
    23:00 +13°C° 0 mm 5 mps 754 mmHg 82%

    Day after tomorrow, 14 November, Thursday

    Time Temperature Precipitation Wind Pressure Humidity
    00:00 +13°C° 0 mm 4 mps 754 mmHg 84%
    01:00 +12°C° 0 mm 4 mps 754 mmHg 86%
    02:00 +12°C° 0 mm 4 mps 754 mmHg 88%
    03:00 +12°C° 0 mm 4 mps 754 mmHg 89%
    04:00 +12°C° 0 mm 4 mps 753 mmHg 89%
    05:00 +12°C° 0 mm 4 mps 753 mmHg 90%
    06:00 +12°C° 0 mm 4 mps 753 mmHg 87%
    07:00 +12°C° 0 mm 4 mps 753 mmHg 85%
    08:00 +12°C° 0 mm 4 mps 753 mmHg 82%
    09:00 +13°C° 0 mm 4 mps 753 mmHg 76%
    10:00 +14°C° 0 mm 4 mps 753 mmHg 71%
    11:00 +17°C° 0 mm 4 mps 753 mmHg 65%
    12:00 +16°C° 0 mm 5 mps 753 mmHg 63%
    13:00 +16°C° 0 mm 5 mps 753 mmHg 61%
    14:00 +16°C° 0 mm 5 mps 753 mmHg 59%
    15:00 +15°C° 0 mm 5 mps 753 mmHg 64%
    16:00 +14°C° 0 mm 4 mps 753 mmHg 68%
    17:00 +13°C° 0 mm 3 mps 753 mmHg 73%
    18:00 +13°C° 0 mm 3 mps 753 mmHg 75%
    19:00 +12°C° 0 mm 3 mps 753 mmHg 77%
    20:00 +12°C° 0 mm 4 mps 753 mmHg 79%
    21:00 +11°C° 0 mm 3 mps 753 mmHg 82%
    22:00 +11°C° 0 mm 3 mps 753 mmHg 85%
    23:00 +11°C° 0 mm 3 mps 753 mmHg 88%

    15 November, Friday

    Time Temperature Precipitation Wind Pressure Humidity
    00:00 +11°C° 0 mm 3 mps 753 mmHg 89%
    01:00 +11°C° 0 mm 3 mps 753 mmHg 90%
    02:00 +12°C° 0 mm 2 mps 753 mmHg 91%
    03:00 +12°C° 0 mm 2 mps 753 mmHg 90%
    04:00 +12°C° 0 mm 2 mps 753 mmHg 90%
    05:00 +13°C° 0 mm 2 mps 753 mmHg 89%
    06:00 +13°C° 0 mm 2 mps 754 mmHg 86%
    07:00 +13°C° 0 mm 2 mps 754 mmHg 84%
    08:00 +13°C° 0 mm 2 mps 754 mmHg 82%
    09:00 +14°C° 0 mm 2 mps 755 mmHg 78%
    10:00 +15°C° 0 mm 2 mps 755 mmHg 74%
    11:00 +17°C° 0 mm 2 mps 755 mmHg 70%
    12:00 +17°C° 0 mm 2 mps 755 mmHg 69%
    13:00 +18°C° 0 mm 2 mps 755 mmHg 67%
    14:00 +19°C° 0 mm 2 mps 755 mmHg 66%
    15:00 +18°C° 0 mm 2 mps 755 mmHg 71%
    16:00 +17°C° 0 mm 2 mps 756 mmHg 76%
    17:00 +16°C° 0 mm 2 mps 756 mmHg 81%
    18:00 +16°C° 0 mm 2 mps 756 mmHg 84%
    19:00 +15°C° 0 mm 2 mps 756 mmHg 88%
    20:00 +13°C° 0 mm 3 mps 757 mmHg 91%
    21:00 +14°C° 0 mm 2 mps 757 mmHg 92%
    22:00 +14°C° 0 mm 2 mps 757 mmHg 93%
    23:00 +13°C° 0 mm 2 mps 757 mmHg 93%

    16 November, Saturday

    Time Temperature Precipitation Wind Pressure Humidity
    00:00 +13°C° 0 mm 2 mps 757 mmHg 93%
    01:00 +13°C° 0 mm 2 mps 758 mmHg 93%
    02:00 +13°C° 0 mm 1 mps 758 mmHg 94%
    03:00 +13°C° 0 mm 1 mps 758 mmHg 94%
    04:00 +13°C° 0 mm 1 mps 758 mmHg 94%
    05:00 +12°C° 0 mm 1 mps 758 mmHg 94%
    06:00 +12°C° 0 mm 1 mps 758 mmHg 94%
    07:00 +13°C° 0 mm 1 mps 758 mmHg 94%
    08:00 +13°C° 0 mm 1 mps 759 mmHg 94%
    09:00 +14°C° 0 mm 2 mps 759 mmHg 86%
    10:00 +16°C° 0 mm 2 mps 759 mmHg 78%
    11:00 +18°C° 0 mm 2 mps 759 mmHg 70%
    12:00 +18°C° 0 mm 2 mps 759 mmHg 65%
    13:00 +19°C° 0 mm 3 mps 759 mmHg 61%
    14:00 +20°C° 0 mm 3 mps 759 mmHg 57%
    15:00 +19°C° 0 mm 3 mps 759 mmHg 65%
    16:00 +17°C° 0 mm 4 mps 759 mmHg 72%
    17:00 +15°C° 0 mm 4 mps 759 mmHg 80%
    18:00 +14°C° 0 mm 4 mps 759 mmHg 85%
    19:00 +13°C° 0 mm 5 mps 759 mmHg 89%
    20:00 +12°C° 0 mm 5 mps 759 mmHg 94%
    21:00 +12°C° 0 mm 4 mps 760 mmHg 94%
    22:00 +12°C° 0 mm 4 mps 760 mmHg 93%
    23:00 +11°C° 0 mm 3 mps 760 mmHg 93%

    17 November, Sunday

    Time Temperature Precipitation Wind Pressure Humidity
    00:00 +11°C° 0 mm 3 mps 760 mmHg 93%
    01:00 +11°C° 0 mm 3 mps 760 mmHg 92%
    02:00 +10°C° 0 mm 3 mps 760 mmHg 92%
    03:00 +10°C° 0 mm 3 mps 759 mmHg 92%
    04:00 +9°C° 0 mm 3 mps 759 mmHg 93%
    05:00 +9°C° 0 mm 3 mps 759 mmHg 94%
    06:00 +9°C° 0 mm 3 mps 759 mmHg 90%
    07:00 +9°C° 0 mm 3 mps 759 mmHg 86%
    08:00 +7°C° 0 mm 4 mps 760 mmHg 82%
    09:00 +10°C° 0 mm 4 mps 760 mmHg 77%
    10:00 +11°C° 0 mm 4 mps 760 mmHg 71%
    11:00 +12°C° 0 mm 4 mps 760 mmHg 66%
    12:00 +12°C° 0 mm 4 mps 759 mmHg 67%
    13:00 +13°C° 0 mm 4 mps 759 mmHg 67%
    14:00 +13°C° 0 mm 4 mps 759 mmHg 68%
    15:00 +12°C° 0 mm 4 mps 759 mmHg 70%
    16:00 +12°C° 0 mm 5 mps 759 mmHg 71%
    17:00 +10°C° 0 mm 5 mps 759 mmHg 73%
    18:00 +11°C° 0 mm 4 mps 759 mmHg 76%
    19:00 +10°C° 0 mm 3 mps 759 mmHg 78%
    20:00 +10°C° 0 mm 3 mps 759 mmHg 81%
    21:00 +10°C° 0 mm 3 mps 759 mmHg 83%
    22:00 +11°C° 0 mm 3 mps 759 mmHg 85%
    23:00 +11°C° 0 mm 3 mps 759 mmHg 88%
    Show more